QPF
0.00 0.00 0.00 0.00 0.00 0.00 0.00 0.00 0.00 0.00 0.00 0.00 0.00 0.00 0.00 0.00 0.00 0.00 0.00 0.00 0.00 0.00 0.00 0.00 0.00 0.00 0.00 0.00 0.00 0.00 0.00 0.00 0.00 0.00 0.00 0.00 0.00 0.00 0.00 0.00 0.00 0.00 0.00 0.00
0.00 0.00 0.00 0.00 0.00 0.00 0.00 0.00 0.00 0.00 0.00 0.00 0.00 0.00 0.00 0.00 0.00 0.00 0.00 0.00 0.00 0.00 0.00 0.00 0.00 0.00 0.00 0.00 0.00 0.00 0.00 0.00 0.00 0.00 0.00 0.00 0.00 0.00 0.00 0.00 0.00 0.00 0.00 0.00
0.00 0.00 0.00 0.00 0.00 0.00 0.00 0.00 0.00 0.00 0.00 0.00 0.00 0.00 0.00 0.00 0.00 0.00 0.00 0.00 0.00 0.00 0.00 0.00 0.00 0.00 0.00 0.00 0.00 0.00 0.00 0.00 0.00 0.00 0.00 0.00 0.00 0.00 0.00 0.00 0.00 0.00 0.00 0.00
0.00 0.00 0.00 0.00 0.00 0.00 0.00 0.00 0.00 0.00 0.00 0.00 0.00 0.00 0.00 0.00 0.00 0.00 0.00 0.00 0.00 0.00 0.00 0.00 0.00 0.00 0.00 0.00 0.00 0.00 0.00 0.00 0.00 0.00 0.00 0.00 0.00 0.00 0.00 0.00 0.00 0.00 0.00 0.00
0.00 0.00 0.00 0.00 0.00 0.00 0.00 0.00 0.00 0.00 0.00 0.00 0.00 0.00 0.00 0.00 0.00 0.00 0.00 0.00 0.00 0.00 0.00 0.00 0.00 0.00 0.00 0.00 0.00 0.00 0.00 0.00 0.00 0.00 0.00 0.00 0.00 0.00 0.00 0.00 0.00 0.00 0.00 0.00
0.00 0.00 0.00 0.00 0.00 0.00 0.00 0.00 0.00 0.00 0.00 0.00 0.00 0.00 0.00 0.00 0.00 0.00 0.00 0.00 0.00 0.00 0.00 0.00 0.00 0.00 0.00 0.00 0.00 0.00 0.00 0.00 0.00 0.00 0.00 0.00 0.00 0.00 0.00 0.00 0.00 0.00 0.00 0.00
0.00 0.00 0.00 0.00 0.00 0.00 0.00 0.00 0.00 0.00 0.00 0.00 0.00 0.00 0.00 0.00 0.00 0.00 0.00 0.00 0.00 0.00 0.00 0.00 0.00 0.00 0.00 0.00 0.00 0.00 0.00 0.00 0.00 0.00 0.00 0.00 0.00 0.00 0.00 0.00 0.00 0.00 0.00 0.00
0.00 0.00 0.00 0.00 0.00 0.00 0.00 0.00 0.00 0.00 0.00 0.00 0.00 0.00 0.00 0.00 0.00 0.00 0.00 0.00 0.00 0.00 0.00 0.00 0.00 0.00 0.00 0.00 0.00 0.00 0.00 0.00 0.00 0.00 0.00 0.00 0.00 0.00 0.00 0.00 0.00 0.00 0.00 0.00
0.00 0.00 0.00 0.00 0.00 0.00 0.00 0.00 0.00 0.00 0.00 0.00 0.00 0.00 0.00 0.00 0.00 0.00 0.00 0.00 0.00 0.00 0.00 0.00 0.00 0.00 0.00 0.00 0.00 0.00 0.00 0.00 0.00 0.00 0.00 0.00 0.00 0.00 0.00 0.00 0.00 0.00 0.00 0.00
0.00 0.00 0.00 0.00 0.00 0.00 0.00 0.00 0.00 0.00 0.00 0.00 0.00 0.00 0.00 0.00 0.00 0.00 0.00 0.00 0.00 0.00 0.00 0.00 0.00 0.01 0.01 0.02 0.01 0.00 0.00 0.00 0.00 0.00 0.00 0.00 0.00 0.00 0.00 0.00 0.00 0.00 0.00 0.00
0.00 0.00 0.00 0.00 0.00 0.00 0.00 0.00 0.00 0.00 0.00 0.00 0.00 0.00 0.00 0.00 0.00 0.00 0.00 0.00 0.00 0.00 0.00 0.00 0.00 0.02 0.04 0.06 0.05 0.03 0.00 0.00 0.00 0.00 0.00 0.00 0.00 0.00 0.00 0.00 0.00 0.00 0.00 0.00
0.00 0.00 0.00 0.00 0.00 0.00 0.00 0.00 0.00 0.00 0.00 0.00 0.00 0.00 0.00 0.00 0.00 0.00 0.00 0.00 0.00 0.00 0.01 0.00 0.00 0.00 0.01 0.04 0.07 0.06 0.03 0.00 0.00 0.00 0.00 0.00 0.00 0.00 0.00 0.00 0.00 0.00 0.00 0.00
0.00 0.00 0.00 0.00 0.00 0.00 0.00 0.00 0.00 0.00 0.00 0.00 0.00 0.00 0.00 0.00 0.00 0.00 0.00 0.00 0.00 0.02 0.04 0.00 0.00 0.00 0.00 0.02 0.08 0.10 0.08 0.04 0.01 0.00 0.00 0.00 0.00 0.00 0.00 0.00 0.00 0.00 0.00 0.00
0.00 0.00 0.00 0.00 0.00 0.00 0.00 0.00 0.00 0.00 0.00 0.00 0.00 0.00 0.00 0.00 0.00 0.00 0.00 0.00 0.01 0.03 0.04 0.01 0.00 0.00 0.03 0.07 0.12 0.14 0.13 0.11 0.06 0.00 0.00 0.00 0.00 0.00 0.00 0.00 0.00 0.00 0.00 0.00
0.00 0.00 0.00 0.00 0.00 0.00 0.00 0.00 0.00 0.00 0.00 0.00 0.00 0.00 0.00 0.00 0.00 0.00 0.00 0.00 0.01 0.01 0.01 0.00 0.00 0.00 0.00 0.00 0.01 0.03 0.16 0.15 0.12 0.02 0.00 0.00 0.00 0.00 0.00 0.00 0.00 0.00 0.00 0.00
0.00 0.00 0.00 0.00 0.00 0.00 0.00 0.00 0.00 0.00 0.00 0.00 0.00 0.00 0.00 0.00 0.00 0.00 0.00 0.01 0.01 0.02 0.02 0.00 0.01 0.00 0.01 0.01 0.01 0.01 0.05 0.12 0.13 0.11 0.00 0.00 0.00 0.00 0.00 0.00 0.00 0.00 0.00 0.00
0.00 0.00 0.00 0.00 0.00 0.00 0.00 0.00 0.00 0.00 0.00 0.00 0.00 0.00 0.00 0.00 0.00 0.00 0.00 0.00 0.00 0.00 0.03 0.04 0.02 0.05 0.04 0.03 0.00 0.00 0.00 0.02 0.04 0.08 0.04 0.00 0.00 0.00 0.00 0.00 0.00 0.00 0.00 0.00
0.00 0.00 0.00 0.00 0.00 0.00 0.00 0.01 0.01 0.00 0.00 0.01 0.05 0.04 0.01 0.00 0.00 0.00 0.00 0.00 0.00 0.00 0.00 0.01 0.02 0.02 0.04 0.03 0.00 0.00 0.00 0.00 0.00 0.00 0.00 0.00 0.00 0.00 0.00 0.00 0.00 0.00 0.00 0.00
0.00 0.00 0.00 0.00 0.00 0.01 0.01 0.01 0.05 0.04 0.01 0.06 0.13 0.14 0.08 0.06 0.03 0.00 0.01 0.00 0.00 0.00 0.00 0.00 0.00 0.01 0.03 0.05 0.04 0.02 0.01 0.00 0.00 0.00 0.00 0.00 0.00 0.00 0.00 0.00 0.00 0.00 0.00 0.00
0.00 0.00 0.00 0.00 0.00 0.01 0.00 0.00 0.01 0.03 0.05 0.05 0.09 0.15 0.15 0.10 0.09 0.04 0.04 0.02 0.01 0.01 0.01 0.00 0.00 0.00 0.00 0.00 0.01 0.01 0.01 0.01 0.01 0.00 0.03 0.05 0.03 0.01 0.00 0.00 0.00 0.00 0.00 0.00
0.00 0.00 0.00 0.00 0.00 0.01 0.00 0.00 0.00 0.03 0.02 0.01 0.02 0.10 0.18 0.18 0.13 0.07 0.06 0.06 0.04 0.02 0.01 0.00 0.00 0.00 0.00 0.00 0.00 0.00 0.00 0.00 0.00 0.00 0.00 0.01 0.02 0.03 0.04 0.06 0.05 0.02 0.00 0.00
0.00 0.00 0.00 0.00 0.00 0.02 0.01 0.00 0.01 0.00 0.00 0.01 0.00 0.02 0.11 0.17 0.16 0.12 0.07 0.04 0.04 0.02 0.01 0.00 0.00 0.00 0.00 0.00 0.00 0.00 0.00 0.00 0.00 0.00 0.00 0.00 0.00 0.00 0.00 0.00 0.05 0.11 0.07 0.02
0.00 0.00 0.01 0.01 0.02 0.03 0.02 0.06 0.03 0.00 0.01 0.00 0.01 0.01 0.01 0.04 0.06 0.06 0.06 0.04 0.02 0.02 0.00 0.00 0.00 0.00 0.00 0.00 0.00 0.00 0.00 0.00 0.00 0.00 0.00 0.00 0.00 0.00 0.00 0.00 0.00 0.04 0.06 0.04
0.01 0.02 0.02 0.03 0.02 0.01 0.01 0.00 0.00 0.00 0.00 0.05 0.02 0.00 0.00 0.00 0.00 0.00 0.00 0.01 0.01 0.01 0.01 0.00 0.00 0.00 0.00 0.00 0.00 0.00 0.00 0.00 0.00 0.00 0.00 0.00 0.00 0.00 0.00 0.00 0.00 0.01 0.02 0.01
0.01 0.02 0.05 0.03 0.03 0.00 0.01 0.00 0.00 0.00 0.00 0.00 0.01 0.01 0.00 0.00 0.00 0.00 0.00 0.00 0.00 0.00 0.00 0.00 0.00 0.00 0.00 0.00 0.00 0.00 0.00 0.00 0.00 0.00 0.00 0.00 0.00 0.00 0.00 0.00 0.00 0.01 0.01 0.01
0.01 0.01 0.02 0.01 0.03 0.01 0.00 0.00 0.00 0.00 0.00 0.00 0.00 0.00 0.01 0.01 0.00 0.00 0.00 0.00 0.00 0.00 0.00 0.00 0.00 0.00 0.00 0.00 0.00 0.00 0.00 0.00 0.00 0.00 0.00 0.00 0.00 0.00 0.00 0.00 0.00 0.00 0.00 0.01
MSLP
1005.71 1006.37 1006.58 1006.62 1006.94 1006.93 1007.44 1007.98 1008.21 1008.38 1009.25 1009.69 1010.26 1010.40 1010.33 1010.65 1011.03 1010.65 1010.43 1010.16 1010.56 1011.00 1011.20 1011.72 1012.18 1012.58 1013.06 1013.50 1014.18 1014.58 1014.84 1015.14 1015.44 1015.69 1016.05 1016.16 1016.16 1016.27 1016.49 1016.49 1016.30 1016.42 1016.56 1016.69
1006.41 1006.38 1006.18 1006.26 1006.54 1006.75 1007.29 1007.60 1007.89 1008.35 1009.13 1009.57 1010.28 1010.35 1010.16 1010.09 1010.19 1010.07 1010.00 1009.78 1009.93 1010.43 1010.82 1011.46 1012.06 1012.55 1012.98 1013.38 1013.90 1014.53 1014.69 1015.07 1015.41 1015.39 1015.65 1015.81 1015.96 1016.22 1016.33 1016.28 1016.37 1016.40 1016.25 1016.81
1006.26 1006.11 1005.80 1006.13 1006.33 1006.62 1007.05 1007.29 1007.60 1008.40 1009.15 1009.54 1009.91 1009.89 1009.77 1009.46 1009.33 1009.41 1009.58 1009.34 1009.44 1009.64 1010.41 1010.90 1011.76 1012.20 1012.81 1013.28 1013.60 1014.08 1014.59 1014.86 1015.23 1015.46 1015.55 1015.82 1016.05 1016.31 1016.60 1016.66 1016.61 1016.46 1016.49 1016.62
1006.22 1005.75 1005.82 1005.77 1005.98 1006.27 1006.65 1006.65 1007.11 1008.01 1009.06 1009.70 1009.55 1009.78 1008.99 1008.47 1008.31 1008.46 1008.54 1008.58 1008.74 1009.00 1009.53 1010.26 1011.06 1011.86 1012.34 1012.81 1013.21 1013.58 1014.19 1014.77 1015.07 1015.44 1015.58 1015.66 1016.02 1016.43 1016.51 1016.58 1016.62 1016.53 1016.52 1016.59
1005.99 1005.68 1005.67 1005.57 1005.61 1005.82 1005.74 1006.32 1007.02 1007.89 1008.93 1009.51 1009.79 1009.71 1008.02 1007.59 1007.62 1007.19 1007.31 1007.48 1007.97 1008.21 1008.72 1009.43 1010.06 1010.71 1011.40 1012.39 1012.91 1013.24 1013.80 1014.53 1014.91 1015.24 1015.51 1015.73 1016.07 1016.22 1016.35 1016.68 1016.78 1016.79 1016.70 1016.58
1005.97 1005.40 1005.23 1005.00 1005.19 1005.43 1005.76 1006.43 1007.17 1008.46 1009.57 1009.82 1009.14 1009.32 1007.10 1006.65 1005.21 1005.10 1005.58 1006.08 1006.82 1007.42 1007.78 1008.55 1009.22 1010.12 1011.02 1011.87 1012.58 1012.97 1013.54 1014.02 1014.57 1015.08 1015.45 1015.77 1016.06 1016.40 1016.68 1017.01 1017.21 1017.17 1017.14 1017.02
1006.50 1005.86 1005.22 1004.83 1005.16 1005.48 1006.21 1007.53 1008.51 1009.71 1010.12 1009.65 1008.77 1008.79 1005.92 1004.27 1004.32 1003.99 1004.09 1005.00 1005.69 1006.42 1007.03 1007.82 1008.90 1009.68 1010.56 1011.38 1012.11 1012.64 1013.02 1013.70 1014.16 1014.62 1015.16 1015.54 1015.79 1016.09 1016.45 1016.66 1016.91 1017.05 1017.20 1017.24
1007.28 1006.56 1005.32 1004.88 1004.94 1005.58 1006.48 1007.53 1008.74 1009.68 1010.00 1009.50 1008.79 1007.33 1004.66 1003.02 1002.02 1002.67 1002.78 1003.53 1005.27 1005.69 1006.15 1006.73 1007.50 1008.58 1009.69 1010.46 1011.40 1012.05 1012.63 1013.13 1013.59 1014.15 1014.82 1015.21 1015.48 1015.68 1016.02 1016.40 1016.46 1016.65 1016.70 1016.88
1007.37 1006.63 1005.27 1004.49 1004.72 1005.37 1006.46 1007.29 1007.67 1009.19 1009.90 1009.82 1008.40 1006.18 1004.10 1002.97 1002.17 1002.03 1002.49 1003.54 1004.21 1005.15 1005.45 1005.78 1006.73 1007.81 1008.90 1009.85 1010.72 1011.36 1012.06 1012.73 1013.16 1013.58 1014.13 1014.72 1015.28 1015.67 1015.78 1015.91 1016.29 1016.38 1016.47 1016.71
1006.57 1006.69 1005.53 1004.64 1004.61 1005.06 1005.51 1006.59 1008.01 1009.19 1009.86 1009.91 1008.24 1006.52 1004.59 1003.27 1002.76 1002.32 1002.56 1003.23 1003.61 1004.52 1005.18 1005.62 1006.47 1007.45 1008.60 1009.49 1010.24 1011.07 1011.60 1012.14 1012.64 1013.37 1013.81 1014.26 1014.72 1015.29 1015.65 1015.71 1015.87 1016.18 1016.32 1016.60
1006.71 1006.85 1006.39 1005.57 1005.10 1005.48 1006.12 1006.54 1007.69 1008.64 1009.09 1009.07 1008.48 1006.53 1003.77 1003.07 1002.63 1002.76 1003.53 1003.78 1003.93 1004.25 1004.89 1005.55 1005.97 1007.33 1008.54 1009.85 1010.61 1011.30 1011.62 1011.98 1012.25 1012.93 1013.54 1013.98 1014.31 1014.83 1015.22 1015.39 1015.34 1015.66 1016.02 1016.34
1006.84 1006.92 1007.42 1006.21 1005.36 1005.07 1005.47 1006.19 1006.92 1008.33 1009.22 1009.02 1007.93 1005.87 1003.60 1002.99 1003.48 1002.92 1003.92 1004.54 1004.59 1004.70 1005.03 1005.69 1006.32 1007.22 1008.58 1009.71 1010.02 1010.59 1011.50 1011.95 1012.03 1012.36 1013.19 1013.70 1014.17 1014.50 1014.91 1015.04 1015.15 1015.25 1015.57 1015.92
1007.03 1007.69 1007.81 1007.02 1006.30 1005.61 1005.54 1005.88 1006.29 1007.08 1007.70 1008.11 1007.94 1005.90 1004.06 1003.46 1004.41 1003.88 1003.66 1004.37 1004.84 1004.92 1005.07 1005.69 1006.38 1007.11 1007.68 1008.67 1010.05 1010.75 1010.63 1011.32 1011.71 1012.27 1012.75 1013.30 1013.69 1014.12 1014.43 1014.61 1014.81 1015.05 1015.16 1015.43
1007.24 1008.04 1007.96 1006.91 1006.47 1005.92 1005.72 1005.74 1005.96 1006.65 1007.68 1007.53 1006.95 1006.07 1005.52 1005.01 1005.33 1005.75 1005.42 1005.58 1005.78 1005.53 1005.50 1005.97 1006.31 1006.36 1006.93 1008.05 1008.93 1009.61 1010.48 1010.84 1011.39 1011.78 1012.27 1012.60 1012.98 1013.24 1013.66 1014.14 1014.33 1014.56 1014.82 1015.04
1008.72 1008.86 1008.03 1006.87 1005.93 1005.65 1005.80 1006.27 1006.27 1006.53 1006.51 1006.79 1006.31 1006.22 1005.94 1005.10 1005.72 1006.62 1006.75 1006.67 1007.02 1006.99 1006.34 1005.73 1006.53 1007.37 1007.74 1007.84 1008.53 1009.40 1010.24 1010.32 1010.87 1011.48 1011.89 1011.88 1012.08 1012.45 1012.99 1013.48 1013.69 1013.90 1014.16 1014.36
1010.46 1009.57 1008.62 1007.65 1006.55 1006.14 1006.53 1006.91 1006.68 1006.96 1007.01 1006.51 1006.14 1006.38 1006.52 1006.48 1006.59 1007.00 1007.78 1008.13 1008.27 1008.48 1008.45 1008.53 1009.33 1008.95 1009.22 1009.36 1009.22 1009.59 1009.94 1010.58 1011.08 1011.82 1011.23 1011.59 1011.94 1012.10 1012.28 1012.74 1013.09 1013.51 1013.50 1013.74
1012.29 1010.99 1009.87 1008.79 1007.19 1006.95 1007.75 1008.17 1008.01 1008.22 1008.26 1007.83 1006.82 1006.21 1006.90 1008.12 1008.40 1008.60 1008.77 1009.56 1009.85 1010.25 1010.67 1010.78 1010.78 1010.49 1009.95 1010.46 1010.80 1010.53 1009.93 1010.12 1010.51 1010.90 1010.95 1011.13 1011.35 1011.53 1011.73 1011.95 1012.42 1012.72 1013.05 1013.22
1012.69 1011.87 1010.74 1009.65 1008.29 1008.60 1009.20 1009.07 1008.66 1008.86 1009.26 1008.83 1008.03 1007.71 1007.96 1009.22 1010.29 1010.01 1010.21 1009.88 1010.17 1010.54 1010.55 1010.71 1010.72 1010.90 1010.81 1011.51 1011.48 1010.98 1010.69 1010.49 1010.59 1010.38 1010.44 1010.61 1010.66 1010.75 1010.99 1011.38 1011.62 1011.79 1012.06 1012.44
1012.45 1012.02 1011.31 1010.58 1010.31 1010.34 1009.99 1009.80 1009.64 1009.35 1010.39 1010.29 1010.01 1009.72 1009.49 1009.76 1010.38 1010.87 1011.27 1011.44 1011.53 1011.67 1011.76 1011.54 1011.66 1011.37 1011.60 1011.87 1011.97 1011.45 1011.22 1011.29 1010.96 1010.86 1010.78 1010.40 1010.35 1010.18 1010.35 1010.51 1010.60 1010.66 1011.20 1011.51
1012.08 1011.94 1011.12 1011.24 1011.16 1011.18 1010.88 1010.61 1010.38 1009.92 1010.96 1010.88 1010.65 1010.63 1010.60 1010.63 1011.21 1011.94 1012.36 1012.60 1012.76 1012.75 1012.59 1012.21 1012.17 1012.17 1012.07 1012.03 1012.00 1011.83 1011.70 1011.67 1011.45 1011.19 1011.02 1010.80 1010.50 1010.06 1009.69 1009.52 1009.59 1009.68 1010.24 1010.46
1012.57 1012.42 1012.19 1012.10 1012.12 1011.90 1011.45 1011.09 1010.55 1010.83 1011.93 1011.40 1011.07 1011.23 1011.35 1011.59 1012.19 1012.75 1013.30 1013.33 1013.68 1014.02 1013.36 1013.07 1012.99 1012.64 1012.68 1012.57 1012.53 1011.83 1011.68 1011.81 1011.70 1011.45 1010.89 1010.51 1009.96 1009.65 1009.31 1009.23 1008.88 1009.06 1009.46 1009.66
1014.36 1014.26 1013.81 1013.31 1013.19 1013.40 1012.37 1011.20 1011.39 1011.67 1011.69 1011.71 1011.45 1011.99 1012.19 1012.69 1012.88 1013.14 1013.41 1013.78 1013.86 1013.81 1013.16 1012.97 1012.81 1012.68 1012.57 1012.56 1012.33 1011.82 1011.55 1011.41 1011.26 1010.94 1010.60 1010.08 1009.63 1009.27 1008.60 1008.20 1008.15 1008.27 1008.77 1008.90
1015.45 1015.20 1014.75 1014.55 1014.88 1014.96 1014.07 1013.45 1012.89 1012.54 1012.34 1012.24 1011.91 1011.81 1012.51 1013.16 1013.59 1013.79 1014.12 1014.52 1014.26 1013.98 1013.82 1013.65 1013.67 1013.36 1013.07 1012.85 1012.78 1012.19 1012.20 1011.65 1011.24 1010.84 1010.59 1010.10 1009.44 1008.89 1008.37 1007.58 1007.52 1007.69 1007.97 1008.13
1015.71 1015.30 1015.22 1015.00 1015.63 1015.31 1015.02 1014.42 1014.11 1013.87 1013.50 1012.97 1012.54 1012.14 1012.25 1013.41 1014.04 1014.30 1013.90 1013.95 1014.21 1014.35 1014.51 1014.58 1014.52 1013.62 1014.26 1014.17 1013.27 1012.62 1012.11 1011.65 1011.21 1011.09 1010.79 1010.27 1009.65 1008.93 1008.32 1007.77 1007.17 1007.10 1007.24 1007.43
1016.54 1015.90 1016.14 1016.49 1016.49 1015.58 1015.51 1016.11 1016.04 1015.22 1014.55 1013.79 1013.20 1012.98 1012.20 1013.63 1013.71 1013.78 1014.01 1014.47 1014.32 1014.52 1014.25 1013.95 1014.42 1013.78 1014.12 1014.23 1013.28 1012.85 1012.25 1011.93 1011.72 1011.48 1011.40 1010.70 1010.05 1009.31 1008.79 1008.33 1007.81 1007.23 1006.63 1006.57
1017.22 1016.94 1016.95 1017.47 1017.67 1017.59 1017.26 1017.04 1017.04 1016.74 1016.24 1015.44 1014.59 1013.91 1013.00 1013.64 1013.83 1013.44 1013.31 1013.43 1014.51 1014.85 1014.68 1015.01 1015.55 1014.58 1014.44 1013.78 1013.49 1013.19 1012.58 1012.41 1012.14 1011.75 1011.61 1010.98 1010.42 1009.76 1009.23 1008.86 1008.02 1007.31 1006.80 1006.34
Thickness
5776 5755 5749 5766 5772 5776 5773 5767 5767 5778 5775 5768 5763 5761 5769 5774 5773 5778 5783 5796 5794 5786 5794 5797 5798 5800 5799 5798 5793 5793 5794 5795 5796 5796 5795 5796 5797 5797 5798 5798 5798 5798 5796 5796
5755 5743 5772 5781 5779 5775 5768 5766 5768 5774 5772 5770 5759 5761 5769 5774 5775 5779 5784 5793 5798 5793 5794 5794 5795 5795 5796 5795 5795 5793 5795 5796 5796 5799 5799 5800 5801 5801 5801 5801 5799 5799 5801 5797
5741 5759 5781 5774 5770 5764 5761 5762 5768 5765 5764 5768 5763 5760 5767 5779 5784 5787 5790 5797 5801 5801 5795 5795 5792 5795 5794 5793 5795 5795 5795 5796 5798 5798 5802 5801 5803 5802 5798 5797 5798 5799 5800 5800
5746 5766 5767 5766 5761 5766 5746 5779 5781 5766 5752 5735 5768 5734 5767 5777 5782 5787 5793 5796 5800 5804 5805 5800 5795 5794 5794 5794 5798 5798 5797 5796 5798 5798 5800 5801 5797 5794 5798 5798 5800 5801 5801 5802
5735 5752 5751 5752 5761 5770 5769 5782 5775 5767 5751 5749 5751 5739 5762 5783 5779 5787 5796 5802 5803 5808 5808 5803 5804 5803 5800 5796 5796 5799 5799 5797 5798 5798 5798 5799 5797 5798 5798 5798 5799 5800 5802 5803
5734 5762 5758 5760 5772 5773 5784 5770 5766 5752 5737 5724 5749 5745 5761 5770 5802 5815 5815 5815 5814 5812 5814 5810 5810 5807 5801 5797 5798 5798 5797 5797 5798 5798 5797 5795 5796 5794 5793 5794 5792 5795 5797 5801
5722 5732 5754 5767 5753 5762 5758 5740 5710 5706 5708 5723 5748 5741 5785 5810 5811 5819 5823 5818 5824 5822 5820 5816 5809 5805 5801 5798 5798 5800 5801 5797 5798 5798 5797 5796 5797 5797 5795 5796 5796 5796 5797 5797
5683 5692 5732 5754 5749 5738 5738 5732 5697 5692 5704 5726 5746 5741 5783 5820 5836 5834 5837 5835 5824 5823 5829 5826 5819 5815 5806 5804 5801 5803 5802 5802 5801 5800 5796 5799 5800 5801 5799 5798 5800 5800 5801 5800
5673 5689 5733 5750 5756 5748 5734 5718 5743 5719 5726 5715 5730 5768 5801 5819 5823 5834 5834 5831 5831 5827 5833 5836 5826 5821 5815 5810 5805 5805 5804 5803 5804 5802 5802 5799 5797 5798 5800 5802 5801 5801 5802 5802
5694 5687 5722 5743 5750 5751 5743 5745 5714 5704 5698 5700 5723 5746 5763 5800 5813 5826 5831 5832 5836 5834 5833 5835 5829 5824 5822 5813 5810 5808 5807 5804 5804 5801 5802 5802 5799 5798 5799 5803 5803 5802 5802 5802
5684 5681 5698 5718 5716 5716 5720 5718 5720 5715 5708 5704 5700 5729 5788 5804 5816 5821 5819 5824 5830 5833 5833 5832 5833 5823 5818 5810 5806 5803 5805 5804 5805 5801 5799 5799 5800 5799 5799 5801 5806 5805 5805 5803
5683 5666 5665 5693 5724 5732 5727 5722 5721 5696 5702 5703 5712 5734 5802 5814 5806 5820 5814 5817 5825 5830 5830 5827 5829 5826 5814 5807 5809 5807 5803 5802 5805 5805 5800 5798 5797 5798 5798 5800 5802 5806 5805 5805
5679 5653 5650 5666 5689 5711 5716 5721 5723 5713 5710 5705 5704 5729 5794 5800 5798 5811 5818 5817 5823 5830 5833 5829 5825 5824 5822 5815 5804 5800 5807 5804 5804 5803 5799 5797 5796 5796 5796 5798 5801 5802 5804 5804
5676 5646 5654 5669 5677 5695 5707 5719 5724 5713 5690 5709 5714 5747 5769 5778 5782 5788 5798 5802 5808 5816 5826 5822 5821 5826 5828 5818 5812 5808 5804 5805 5802 5804 5801 5799 5797 5799 5798 5796 5798 5800 5801 5802
5659 5654 5665 5678 5696 5703 5707 5702 5715 5714 5721 5717 5739 5740 5758 5777 5778 5777 5785 5790 5793 5799 5812 5821 5819 5813 5813 5819 5816 5807 5804 5804 5802 5801 5799 5800 5800 5800 5798 5797 5798 5800 5801 5802
5634 5649 5663 5670 5686 5693 5683 5687 5704 5705 5709 5728 5737 5739 5752 5762 5771 5769 5769 5770 5774 5783 5789 5793 5792 5798 5797 5802 5807 5803 5803 5800 5798 5789 5795 5798 5798 5798 5798 5797 5797 5795 5800 5801
5613 5629 5639 5650 5672 5680 5660 5668 5680 5689 5698 5707 5727 5745 5751 5741 5747 5747 5755 5753 5755 5757 5760 5763 5770 5776 5788 5787 5786 5791 5802 5802 5798 5792 5793 5797 5798 5797 5798 5797 5795 5796 5795 5797
5606 5620 5624 5636 5659 5644 5652 5673 5681 5681 5686 5698 5718 5731 5738 5730 5725 5733 5738 5747 5751 5754 5759 5761 5764 5769 5772 5770 5773 5782 5788 5791 5792 5796 5797 5798 5799 5798 5796 5795 5796 5797 5797 5795
5604 5611 5618 5628 5621 5637 5646 5654 5660 5669 5666 5682 5689 5703 5717 5723 5722 5719 5721 5727 5733 5738 5742 5748 5752 5757 5759 5759 5762 5771 5775 5776 5781 5784 5786 5792 5796 5797 5796 5796 5797 5799 5796 5796
5598 5603 5623 5616 5628 5623 5637 5647 5658 5670 5653 5674 5680 5685 5695 5703 5695 5702 5705 5710 5714 5722 5728 5733 5740 5743 5748 5752 5756 5759 5763 5765 5770 5775 5778 5780 5784 5790 5797 5800 5800 5801 5797 5797
5586 5592 5609 5607 5607 5617 5630 5638 5653 5643 5648 5666 5671 5676 5682 5686 5688 5691 5692 5695 5699 5701 5711 5720 5724 5730 5734 5738 5742 5752 5756 5757 5761 5765 5773 5777 5779 5787 5793 5796 5800 5799 5796 5795
5566 5574 5586 5592 5594 5594 5620 5638 5636 5641 5650 5655 5661 5662 5664 5669 5674 5678 5680 5681 5685 5693 5705 5710 5714 5720 5726 5732 5737 5744 5748 5753 5757 5763 5767 5774 5779 5783 5791 5796 5799 5798 5795 5794
5565 5570 5581 5592 5589 5592 5599 5608 5620 5631 5638 5647 5654 5659 5656 5654 5658 5662 5662 5663 5671 5680 5686 5693 5697 5704 5710 5718 5723 5731 5734 5742 5748 5755 5761 5766 5772 5779 5786 5794 5797 5794 5794 5793
5561 5569 5575 5584 5578 5582 5590 5599 5607 5615 5623 5634 5642 5650 5651 5642 5643 5645 5651 5655 5657 5663 5670 5673 5677 5688 5687 5693 5706 5718 5726 5733 5740 5743 5750 5757 5763 5771 5780 5787 5794 5794 5793 5792
5547 5562 5563 5563 5564 5582 5587 5580 5585 5598 5608 5618 5627 5633 5643 5632 5635 5639 5641 5642 5648 5652 5652 5663 5664 5674 5674 5679 5693 5701 5712 5721 5725 5730 5734 5744 5752 5760 5767 5772 5777 5783 5792 5794
5540 5546 5553 5555 5548 5551 5562 5566 5570 5575 5584 5594 5602 5612 5621 5618 5624 5633 5637 5640 5634 5636 5639 5640 5638 5654 5659 5671 5679 5686 5696 5704 5712 5718 5721 5730 5738 5745 5751 5756 5764 5775 5780 5786